Ames, IA

7:06 AM CDT on March 23, 2017 (GMT -0500)
Ames Municipal

Weather History for KAMW - August, 2014

Change the Weather History Date:

Saturday, August 23, 2014

  Actual Average Record
Temperature  
Mean Temperature 78 °F 70 °F  
Max Temperature 84 °F 81 °F 92 °F (2012)
Min Temperature 71 °F 59 °F 53 °F (1997)
Degree Days  
Heating Degree Days 0 0  
Month to date heating degree days 0 0  
Since 1 June heating degree days 16 28  
Since 1 July heating degree days 12 4  
Cooling Degree Days 13 5  
Month to date cooling degree days 150 161  
Year to date cooling degree days 531 647  
Since 1 June cooling degree days 454 598  
Growing Degree Days 26 (Base 50)    
Moisture  
Dew Point 73 °F    
Average Humidity 87    
Maximum Humidity 100    
Minimum Humidity 74    
Precipitation  
Precipitation 0.37 in 0.16 in 3.18 in (1985)
Month to date precipitation 2.54 3.29  
Sea Level Pressure  
Sea Level Pressure 29.89 in    
Wind  
Wind Speed 7 mph (ESE)    
Max Wind Speed 17 mph    
Max Gust Speed 23 mph    
Visibility 8 miles    
Events Rain , Thunderstorm    
T = Trace of Precipitation, MM = Missing Value Source: NWS Daily Summary

Daily Weather History Graph

Daily Weather History Graph

Search for Another Location

Airport or City:

Trip Planner

Search our weather history database for the weather conditions in past years. The results will help you decide how hot, cold, wet, or windy it might be!

Date:

Astronomy

Aug. 23, 2014 Rise Set
Actual Time 6:30 AM CDT 8:02 PM CDT
Civil Twilight 6:01 AM CDT 8:31 PM CDT
Nautical Twilight 5:25 AM CDT 9:07 PM CDT
Astronomical Twilight 4:48 AM CDT 9:44 PM CDT
Moon 4:46 AM CDT 6:47 PM CDT
Length of Visible Light 14h 30m
Length of Day
13h 31m
Waning Crescent, 3% of the Moon is Illuminated
Aug 23
Waning Crescent
Aug 25
New
Sep 2
First Quarter
Sep 8
Full
Sep 15
Last Quarter

Hourly Weather History & Observations

Time (CDT) Temp. Heat Index Dew Point Humidity Pressure Visibility Wind Dir Wind Speed Gust Speed Precip Events Conditions
12:53 AM 75.9 °F - 75.0 °F 97% 29.90 in 5.0 mi Calm Calm - N/A   Scattered Clouds
1:53 AM 75.0 °F - 75.0 °F 100% 29.91 in 4.0 mi Calm Calm - N/A   Overcast
2:53 AM 75.0 °F - 73.9 °F 96% 29.88 in 5.0 mi ENE 6.9 mph - N/A   Mostly Cloudy
3:37 AM 73.9 °F - 72.0 °F 93% 29.91 in 7.0 mi ENE 8.1 mph - N/A   Mostly Cloudy
4:53 AM 73.9 °F - 71.1 °F 91% 29.89 in 10.0 mi ESE 3.5 mph - N/A   Overcast
5:12 AM 73.0 °F - 71.1 °F 93% 29.93 in 10.0 mi Calm Calm - N/A   Mostly Cloudy
5:18 AM 73.0 °F - 71.1 °F 93% 29.93 in 10.0 mi Calm Calm - N/A Thunderstorm Mostly Cloudy
5:53 AM 73.9 °F - 72.0 °F 93% 29.92 in 6.0 mi WSW 8.1 mph 17.3 mph 0.03 in Rain , Thunderstorm Light Rain
6:22 AM 71.1 °F - 71.1 °F 100% 29.95 in 2.5 mi West 9.2 mph - 0.11 in Rain , Thunderstorm Heavy Thunderstorms and Rain
6:28 AM 72.0 °F - 72.0 °F 100% 29.95 in 3.0 mi SW 4.6 mph - 0.13 in Rain , Thunderstorm Rain
7:05 AM 71.1 °F - 71.1 °F 100% 29.95 in 7.0 mi NE 4.6 mph - 0.03 in Rain , Thunderstorm Light Thunderstorms and Rain
7:24 AM 71.1 °F - 71.1 °F 100% 29.95 in 5.0 mi NNE 5.8 mph - 0.07 in Rain , Thunderstorm Rain
7:38 AM 71.1 °F - 71.1 °F 100% 29.94 in 6.0 mi NE 9.2 mph - 0.09 in Rain Light Rain
7:53 AM 71.1 °F - 71.1 °F 100% 29.89 in 9.0 mi NE 8.1 mph - 0.10 in Rain Light Rain
8:53 AM 71.1 °F - 71.1 °F 100% 29.90 in 9.0 mi East 3.5 mph - 0.04 in Rain Light Rain
10:53 AM 72.0 °F - 72.0 °F 100% 29.87 in 10.0 mi ESE 5.8 mph - 0.01 in   Partly Cloudy
11:11 AM 72.0 °F - 72.0 °F 100% 29.88 in 10.0 mi SE 8.1 mph - N/A   Scattered Clouds
11:53 AM 73.9 °F - 72.0 °F 93% 29.88 in 10.0 mi SE 6.9 mph - N/A   Clear
12:53 PM 78.1 °F - 73.0 °F 84% 29.89 in 10.0 mi ESE 6.9 mph - N/A   Clear
1:53 PM 81.0 °F 85.8 °F 73.0 °F 77% 29.88 in 10.0 mi ESE 9.2 mph - N/A   Clear
2:53 PM 82.0 °F 87.4 °F 73.0 °F 74% 29.86 in 10.0 mi ESE 9.2 mph - N/A   Scattered Clouds
4:53 PM 82.9 °F 89.4 °F 73.9 °F 74% 29.83 in 10.0 mi SE 10.4 mph - N/A   Scattered Clouds
5:23 PM 82.0 °F 87.9 °F 73.9 °F 76% 29.86 in 10.0 mi ESE 8.1 mph - N/A   Mostly Cloudy
5:33 PM 81.0 °F 85.8 °F 73.0 °F 77% 29.87 in 10.0 mi ESE 8.1 mph - N/A   Scattered Clouds
5:44 PM 81.0 °F 86.2 °F 73.9 °F 79% 29.86 in 10.0 mi ESE 9.2 mph - N/A   Mostly Cloudy
5:53 PM 81.0 °F 86.2 °F 73.9 °F 79% 29.83 in 10.0 mi ESE 8.1 mph - N/A   Mostly Cloudy
6:53 PM 80.1 °F 84.5 °F 73.9 °F 81% 29.83 in 10.0 mi ESE 8.1 mph - N/A   Scattered Clouds
7:28 PM 79.0 °F - 75.0 °F 88% 29.86 in 10.0 mi ESE 6.9 mph - N/A   Mostly Cloudy
7:53 PM 78.1 °F - 75.0 °F 90% 29.84 in 10.0 mi ESE 9.2 mph - N/A   Overcast
8:53 PM 75.9 °F - 73.9 °F 94% 29.85 in 10.0 mi ESE 6.9 mph - N/A   Scattered Clouds
10:02 PM 75.0 °F - 73.0 °F 94% 29.88 in 9.0 mi ESE 10.4 mph - N/A   Scattered Clouds
10:15 PM 75.0 °F - 73.0 °F 94% 29.88 in 9.0 mi ESE 9.2 mph - N/A   Partly Cloudy
10:46 PM 73.9 °F - 73.0 °F 97% 29.88 in 10.0 mi ESE 9.2 mph - N/A   Mostly Cloudy
10:53 PM 73.9 °F - 73.0 °F 97% 29.86 in 10.0 mi ESE 8.1 mph - N/A   Mostly Cloudy
11:53 PM 73.9 °F - 73.0 °F 97% 29.86 in 10.0 mi ESE 8.1 mph - N/A   Overcast